TIME,DELAY(SENSOR),PRES,T(CTD),SAL,OXYGEN,RAWTEMP,T(OPTODE),TCPHASE,FLUOR,BETA(BETA700),BETA(BETA412),BETA(BETA440),CDOM,C(CSC),ED(ED412.40),ED(ED444.00),ED(ED489.70),ED(ED554.30),LU(LU411.80),LU(LU443.40),LU(LU489.60),LU(LU554.10),COMP,TILTX,TILTX(TILTY),CHECK
1375043663,5810,495.2200012207031000,6.9358000755310060,34.1124000549316400,90.2208099365234400,589.8438110351562000,6.9118609428405760,47.5925407409668000,51,102,88,79,77,15335,2147746185,2147424137,2148012214,2147869897,2147627355,2147073956,2148246409,2147198317,2575,4,13,6795
1375043792,5808,483.5899963378906000,7.2210998535156250,34.0971984863281250,100.8451995849609400,580.6892700195312000,7.2063260078430180,46.3033409118652340,51,103,85,79,76,15335,2147742683,2147421632,2148008292,2147871552,2147626852,2147076571,2148245129,2147195977,3073,4,12,54256
1375043913,5807,471.7399902343750000,7.4303002357482910,34.0940017700195300,109.8387985229492200,574.1699218750000000,7.4155669212341310,45.2768592834472660,51,104,87,78,76,15333,2147746066,2147423808,2148004416,2147872667,2147625627,2147078509,2148240996,2147199131,1561,3,13,10863
1375044025,5811,460.2699890136719000,7.5904998779296875,34.0915985107421900,116.3601989746093800,568.9036254882812000,7.5843110084533690,44.5477981567382800,51,105,87,80,76,15332,2147742317,2147422518,2148008128,2147872384,2147621824,2147078080,2148237732,2147205065,572,4,13,28111
1375044135,5808,448.7500000000000000,7.8252000808715820,34.0914993286132800,124.1494979858398400,561.9885864257812000,7.8055191040039060,43.6936988830566400,50,103,87,80,75,15335,2147740653,2147424365,2148006619,2147874267,2147626541,2147081856,2148238006,2147199926,2815,3,13,52589
1375044245,5808,437.3500061035156000,7.9879999160766600,34.0896987915039060,129.6309051513672000,556.0344848632812000,7.9956631660461430,43.0888710021972660,51,103,87,80,75,15333,2147741677,2147422985,2148006262,2147870656,2147621156,2147085942,2148234971,2147201462,1557,3,13,40177
1375044374,5810,426.0700073242187500,8.2735004425048830,34.0891990661621100,139.9900970458984400,547.9323120117188000,8.2539243698120120,42.0388412475585940,50,105,85,80,75,15333,2147737737,2147422738,2148006189,2147868626,2147622665,2147083108,2148236178,2147202313,1078,3,13,2254
1375044551,5811,415.1900024414062500,8.5601997375488280,34.0899009704589840,151.1531982421875000,538.8873291015625000,8.5416049957275390,40.9537696838378900,50,107,89,79,73,15332,2147739401,2147424621,2148005467,2147873572,2147618569,2147082395,2148235794,2147199195,3522,3,13,49655
1375044719,5808,403.6600036621094000,8.8285999298095700,34.0934982299804700,156.7516021728515600,530.3237304687500000,8.8133735656738280,40.3614311218261700,50,106,89,81,73,15331,2147735789,2147425042,2148007003,2147870646,2147616822,2147091053,2148233051,2147200740,2920,3,13,33930
1375044862,5807,393.1400146484375000,9.0537996292114260,34.0965003967285160,165.6806945800781200,523.1212158203125000,9.0415058135986330,39.5531806945800800,50,105,86,80,73,15330,2147738304,2147423478,2148005760,2147868544,2147614107,2147088886,2148233737,2147197595,1683,3,13,12696
1375045013,5808,380.2600097656250000,9.3767004013061520,34.0993003845214840,174.7617034912109400,512.6743774414062000,9.3717060089111330,38.7127189636230500,49,105,89,79,72,15330,2147737115,2147423872,2148006308,2147871844,2147612589,2147087040,2148227465,2147198235,674,3,13,24545
1375045123,5803,369.5199890136719000,9.5340995788574220,34.1043014526367200,181.5735015869140600,507.9594116210937500,9.5204763412475590,38.1581497192382800,50,104,89,80,71,15333,2147732681,2147424438,2148004105,2147870116,2147614738,2147099364,2148229284,2147199405,2767,4,13,11646
1375045236,5807,358.0100097656250000,9.8750000000000000,34.1166992187500000,195.0718994140625000,497.0506896972656000,9.8640651702880860,37.0830116271972660,49,104,89,81,69,15333,2147732754,2147424539,2148006180,2147872137,2147610294,2147091200,2148228452,2147202752,2423,3,13,41821
1375045346,5809,347.1099853515625000,10.0839996337890620,34.1264991760253900,202.2933044433593800,490.0711975097656000,10.0834598541259770,36.5153884887695300,49,104,86,81,70,15335,2147734848,2147424713,2148005394,2147869366,2147611428,2147099812,2148223305,2147205092,1788,3,13,33852
1375045456,5806,336.6300048828125000,10.3896999359130860,34.1495018005371100,212.1878967285156200,479.6961975097656000,10.4090003967285160,35.7543792724609400,48,104,87,79,68,15334,2147731675,2147424182,2148010633,2147869394,2147609645,2147103222,2148223259,2147200996,448,3,13,25725
1375045580,5807,325.5199890136719000,10.6920995712280270,34.1696014404296900,223.1134948730468800,470.2069091796875000,10.7061395645141600,34.9847793579101560,49,105,85,80,69,15336,2147731675,2147424493,2148008109,2147872886,2147604809,2147103030,2148217179,2147201700,2489,3,14,41584
1375045712,5807,314.2300109863281000,11.0629997253417970,34.1833000183105500,224.1479949951172000,459.2827148437500000,11.0475196838378900,34.7510299682617200,49,102,85,80,68,15335,2147729874,2147425846,2148016128,2147873828,2147608713,2147105078,2148223616,2147199222,1809,3,14,28568
1375045836,5807,303.5700073242187500,11.3430004119873050,34.1957015991210940,225.7944030761718800,449.8555908203125000,11.3415403366088870,34.5102310180664060,48,103,85,80,66,15333,2147726784,2147428964,2148015725,2147870528,2147605394,2147108845,2148228160,2147202998,964,3,14,18029
1375045957,5807,292.6199951171875000,11.6859998703002930,34.1910018920898440,219.9530029296875000,439.2048034667969000,11.6731300354003900,34.6577796936035160,48,103,87,80,68,15329,2147728502,2147432054,2148024301,2147872466,2147602852,2147111698,2148230006,2147205293,2894,3,13,49770
1375046078,5806,281.4200134277344000,11.9914999008178710,34.1867980957031250,212.3121032714843800,429.1871032714844000,11.9844503402709960,34.9270095825195300,49,104,86,79,70,15329,2147727460,2147435940,2148033371,2147872073,2147598793,2147116800,2148230619,2147208667,2766,3,14,5800
1375046201,5807,270.4299926757812500,12.3173999786376950,34.2131004333496100,207.3533020019531200,418.1315002441406000,12.3274297714233400,35.0391006469726560,48,102,85,80,67,15327,2147725586,2147435090,2148050486,2147870994,2147597942,2147117851,2148237549,2147209417,2846,3,13,11140
1375046333,5809,260.0299987792969000,12.7741003036499020,34.2536010742187500,216.1522979736328000,403.9910888671875000,12.7652502059936520,34.3138008117675800,48,103,87,80,68,15327,2147721828,2147444845,2148069577,2147870619,2147596653,2147129993,2148243437,2147211483,2015,3,14,60287
1375046490,5803,248.8500061035156200,13.4373998641967770,34.3129997253418000,219.9622955322265600,382.3301086425781000,13.4342002868652340,33.7702598571777340,49,104,88,79,66,15330,2147721106,2147451922,2148102738,2147868452,2147595392,2147140233,2148258880,2147204909,1085,3,14,41635
1375046666,5810,238.1600036621093800,14.1649999618530270,34.3712997436523440,221.7460021972656200,358.7663879394531000,14.1598300933837890,33.3180198669433600,48,106,86,78,66,15325,2147720832,2147465353,2148135899,2147871122,2147592749,2147144155,2148269092,2147208521,280,3,14,46786
1375046838,5807,226.8800048828125000,15.1094999313354500,34.4634017944335940,218.9696960449218800,328.6752929687500000,15.0838298797607420,33.0221900939941400,48,107,85,79,65,15318,2147720310,2147487040,2148192649,2147871433,2147586898,2147166281,2148290112,2147211108,1412,3,14,38753
1375046981,5805,215.8200073242187500,15.9169998168945310,34.5435981750488300,218.9678039550781200,301.5557861328125000,15.9145698547363280,32.6275596618652340,49,106,84,80,65,15317,2147724781,2147517622,2148269677,2147871478,2147580928,2147193289,2148323035,2147217453,1002,3,13,40705
1375047122,5808,203.7599945068359400,16.4242992401123050,34.5952987670898440,217.6190032958984400,283.6986999511719000,16.4608192443847660,32.4439582824707000,50,107,85,80,64,15316,2147730240,2147569206,2148396032,2147871067,2147584137,2147227392,2148384045,2147222144,247,2,14,36603
1375047196,5809,196.7400054931640600,16.9943008422851560,34.6627998352050800,216.1641998291015600,263.7167968750000000,17.0715293884277340,32.2390098571777340,53,109,90,81,64,15307,2147736914,2147610614,2148489234,2147869796,2147584256,2147253558,2148426230,2147227044,2445,2,15,18813
1375047251,5808,191.6699981689453000,17.4717006683349600,34.7262992858886700,216.5494995117187500,249.6463928222656200,17.5013408660888670,32.0207405090332000,53,110,86,81,64,15308,2147745764,2147646802,2148572662,2147874678,2147587812,2147276918,2148465993,2147226733,1867,3,15,31353
1375047306,5809,186.5899963378906200,17.8556003570556640,34.7840003967285160,217.4378967285156200,237.7664947509765600,17.8641605377197270,31.8072490692138670,56,111,87,81,64,15308,2147758473,2147698166,2148681280,2147873801,2147590336,2147309741,2148517229,2147226825,1904,3,14,37065
1375047385,5809,179.3899993896484400,18.3162002563476560,34.8362007141113300,215.1961059570312500,222.1092987060547000,18.3423004150390620,31.7107391357421880,59,116,88,81,64,15303,2147783232,2147787940,2148861165,2147873654,2147600310,2147363465,2148596598,2147235309,1178,3,14,41766
1375047440,5808,174.6799926757812500,18.4752998352050780,34.8614006042480500,214.2001037597656200,216.2608947753906200,18.5209102630615230,31.6834506988525400,60,122,88,82,63,15298,2147804388,2147861019,2149016000,2147874002,2147604864,2147407606,2148669952,2147242212,985,3,15,63752
1375047495,5810,169.9499969482422000,18.6749992370605470,34.8847999572753900,213.3887939453125000,210.3919067382812500,18.7001590728759770,31.6466903686523440,61,113,84,81,64,15293,2147835830,2147956763,2149196361,2147877248,2147620041,2147467492,2148753188,2147250349,1268,2,13,43381
1375047550,5809,165.2400054931640600,18.8910999298095700,34.9020996093750000,211.0175018310547000,203.8997039794922000,18.8984603881835940,31.6868495941162100,68,116,88,80,64,15287,2147879561,2148076123,2149434724,2147877924,2147634102,2147530624,2148852635,2147258194,329,2,15,60202
1375047605,5810,160.8600006103515600,19.1471996307373050,34.9292984008789060,208.4111022949218800,194.1389007568359400,19.1966495513916000,31.6962699890136720,71,124,89,82,64,15283,2147929307,2148209389,2149681234,2147882011,2147654409,2147601709,2148958948,2147268873,3240,2,15,30171
1375047660,5810,156.6699981689453000,19.5681991577148440,34.9753990173339840,207.1062011718750000,182.0511016845703000,19.5660495758056640,31.6038398742675780,76,125,88,82,62,15276,2147988132,2148345408,2149940745,2147880475,2147675437,2147674752,2149077376,2147274742,2770,2,15,37042
1375047745,5807,151.4400024414062500,19.8992004394531250,35.0218009948730500,208.5135955810547000,172.0673065185547000,19.8712902069091800,31.3901004791259770,85,129,89,82,63,15267,2148096758,2148594075,2150368768,2147885869,2147711844,2147799158,2149256987,2147286939,1831,2,15,12721
1375047822,5807,147.8800048828125000,20.1998996734619140,35.0521011352539060,208.5928955078125000,162.3190002441406200,20.1694698333740230,31.2539501190185550,89,125,91,82,63,15264,2148185389,2148794176,2150716589,2147889508,2147749522,2147886957,2149387968,2147299611,1792,2,15,861
1375047921,5809,144.0099945068359400,20.2700996398925780,35.0643005371093750,209.3280944824218800,159.1779022216797000,20.2655792236328120,31.1715793609619140,97,127,86,81,63,15254,2148318784,2149065417,2151182966,2147894592,2147793554,2148012845,2149561069,2147312704,1503,2,15,19192
1375048023,5809,139.8000030517578000,20.4948005676269530,35.0727005004882800,209.1219024658203000,152.3612976074218800,20.4742202758789060,31.0915794372558600,103,122,89,82,62,15241,2148529901,2149476434,2151875053,2147899181,2147871789,2148203200,2149821092,2147333577,1514,2,15,38684
1375048122,5805,135.9199981689453000,20.5352001190185550,35.0750999450683600,208.6381072998047000,150.5247039794922000,20.5304508209228500,31.0933399200439450,103,125,89,83,62,15248,2148782016,2149957952,2152677257,2147913773,2147966080,2148421412,2150127433,2147358930,507,2,15,43263
1375048221,5812,131.3600006103515600,20.6739006042480470,35.0871009826660160,208.3408050537109400,146.3014068603515600,20.6597805023193360,31.0531291961669920,109,128,88,82,62,15241,2149212800,2150738313,2153925659,2147932589,2148120164,2148756041,2150594852,2147400310,26,2,15,36867
1375048298,5812,127.9499969482421900,20.9027996063232420,35.1048011779785160,208.5449981689453000,138.6703948974609400,20.8935508728027340,30.9398307800292970,118,128,89,83,63,15230,2149600950,2151398747,2154940315,2147945627,2148256923,2149050925,2150981513,2147439762,3184,2,15,39985
1375048399,5811,123.9100036621093800,20.9876995086669920,35.1175994873046900,209.6678924560547000,135.5041961669922000,20.9905891418457030,30.8365192413330080,120,125,89,83,62,15222,2149515913,2150944932,2153840804,2147940845,2148211812,2148792960,2150489362,2147401792,2004,2,15,60363
1375048509,5807,119.7799987792968800,21.4375000000000000,35.1825981140136700,213.3276977539062500,121.6917037963867200,21.4142093658447270,30.4582290649414060,122,132,89,82,62,15215,2151361362,2154347108,2159402706,2148028388,2148876690,2150283538,2152650276,2147585225,1258,2,15,31275
1375048652,5812,116.4000015258789000,21.5788002014160160,35.2028007507324200,218.6533966064453000,116.8495025634765600,21.5628299713134770,30.1179409027099600,128,128,88,84,61,15213,2149872786,2151240018,2153920521,2147949604,2148349412,2148896585,2150500370,2147410706,3026,2,15,56735
1375048797,5805,111.7399978637695300,21.6772003173828120,35.1912994384765600,217.4727020263672000,113.1485977172851600,21.6764698028564450,30.1301994323730470,135,130,90,82,61,15195,2152083282,2154735890,2159038372,2148052809,2149113965,2150286034,2152304100,2147574875,1637,2,16,5186
1375048896,5812,108.1900024414062500,22.1205005645751950,35.2742004394531250,224.7061004638672000,100.3513031005859400,22.0697593688964840,29.5997695922851560,145,128,91,84,59,15178,2156823643,2162449088,2170419940,2148277641,2150877403,2153580315,2156694208,2147956690,1590,2,15,4384
1375049047,5805,103.3000030517578100,22.3043994903564450,35.2578010559082000,231.5693969726562500,93.1763534545898400,22.2904891967773440,29.1753406524658200,158,130,90,84,60,15164,2153125513,2155634304,2158975862,2148068553,2149583643,2150637010,2152393801,2147594660,1236,1,15,33319
1375049135,5810,100.0000000000000000,22.4608001708984380,35.2690010070800800,228.6753997802734400,87.9292984008789000,22.4520206451416000,29.2466201782226560,156,129,89,84,61,15148,2158324763,2163141842,2168233462,2148283812,2151458395,2153623698,2155932068,2147931227,130,1,16,10768
1375049190,5806,98.2200012207031200,22.5296993255615230,35.2806015014648440,230.0570983886718800,84.9913635253906200,22.5425090789794920,29.1430702209472660,113,123,91,84,60,15176,2167653449,2176635008,2185192704,2148718811,2154843218,2159087926,2162373549,2148555913,3319,1,16,20156
1375049245,5807,96.4899978637695300,22.6187000274658200,35.2905998229980500,232.0847015380859400,82.7611312866211000,22.6112308502197270,29.0184097290039060,95,123,89,83,60,15190,2160811510,2165562212,2169665526,2148340955,2152447872,2154779666,2156691328,2148025728,3178,1,16,41867
1375049300,5810,94.6600036621093800,22.7262992858886720,35.2966003417968750,233.6972045898437500,79.3564300537109400,22.7161693572998050,28.8992900848388670,91,122,89,84,60,15193,2167045028,2174108498,2179829924,2148650523,2154988123,2158631286,2160900105,2148429302,3245,1,16,13031
1375049384,5808,91.1399993896484400,22.9923000335693360,35.3198013305664060,236.2485961914062500,71.0257034301757800,22.9731197357177730,28.6756591796875000,86,125,88,84,57,15189,2179660726,2190129517,2197289280,2149251245,2160639734,2166590912,2168832786,2149216905,3337,2,15,1882
1375049439,5809,88.2699966430664000,23.2527008056640620,35.3408012390136700,240.9593963623047000,62.7446289062500000,23.2288208007812500,28.3571205139160160,78,127,91,85,59,15196,2184402358,2195696923,2202783387,2149556836,2163567332,2170258688,2171901083,2149531474,207,2,15,7650
1375049494,5808,85.3799972534179700,23.3894996643066400,35.3395004272460940,242.4160003662109400,57.8070793151855500,23.3814201354980470,28.2304401397705080,76,127,88,84,57,15193,2185705846,2196605120,2203042834,2149771995,2164747501,2171241526,2172041316,2149572150,276,1,15,28485
1375049549,5807,82.5999984741211000,23.4855003356933600,35.3445014953613300,242.0814056396484400,54.3307914733886700,23.4889202117919920,28.2020797729492200,74,125,91,85,57,15183,2178533577,2185758390,2189347547,2149360310,2162088292,2166817316,2166814857,2149071213,3520,2,16,24825
1375049604,5806,80.1800003051757800,23.6847000122070300,35.3448982238769500,241.6154937744140600,49.4798889160156250,23.6390304565429700,28.1625709533691400,72,126,91,83,59,15183,2200418761,2213038784,2219379218,2150765860,2173475474,2182277074,2181513188,2150542582,3244,1,16,39003
1375049661,5810,78.2300033569336000,23.7252006530761720,35.3468017578125000,241.8592071533203000,46.7832908630371100,23.7225208282470700,28.1181507110595700,72,124,91,83,56,15187,2204914112,2217358500,2223057837,2151143131,2176497517,2185756068,2184130569,2150819730,2932,1,16,15993
1375049716,5810,76.6200027465820300,23.8481006622314450,35.3563003540039060,242.3860931396484400,43.8684692382812500,23.8127994537353500,28.0586490631103500,69,125,92,86,57,15180,2189459858,2196424594,2198565924,2150093805,2169369965,2175107456,2173101357,2149719122,2372,2,15,14109
1375049771,5805,75.3499984741211000,23.8687992095947270,35.3595008850097660,243.5178070068359400,42.2314682006835940,23.8635196685791000,27.9882106781005860,68,125,93,85,58,15178,2211990665,2223970834,2228760064,2151730148,2181607844,2191325485,2187950656,2151224036,2321,1,16,18720
1375049859,5812,73.3199996948242200,23.9710006713867200,35.3692016601562500,244.9951019287109400,38.9845199584960940,23.9641704559326170,27.8830890655517580,69,127,92,86,55,15164,2216540571,2228220297,2232153508,2152151296,2185462098,2195201234,2190331995,2151508562,1257,1,16,17630
1375049936,5809,71.2799987792968800,24.0702991485595700,35.3741989135742200,244.9416046142578000,33.9390907287597660,24.1206607818603500,27.8231201171875000,67,129,91,86,58,15165,2223389037,2235153325,2238891968,2153028562,2190678555,2201005092,2194618377,2152027474,329,1,16,53941
1375050020,5808,68.3700027465820300,24.2574005126953120,35.3774986267089840,245.1450042724609400,30.1105098724365230,24.2395000457763670,27.7670402526855470,67,130,91,85,58,15161,2231639497,2242070427,2244313947,2153950390,2197905060,2208409728,2199783451,2152643638,3519,1,16,40011
1375050075,5808,65.6900024414062500,24.2912998199462900,35.3800010681152340,245.2281951904297000,28.8201904296875000,24.2795600891113280,27.7475204467773440,67,129,93,84,56,15154,2241515090,2251600310,2253007222,2155319113,2205638747,2216437476,2205539245,2153376676,688,2,16,64444
1375050130,5809,62.7099990844726560,24.4683990478515620,35.3833999633789060,245.2353973388672000,23.3162593841552730,24.4505691528320300,27.6794700622558600,67,131,94,86,57,15148,2253547584,2263542473,2264554368,2157048374,2214160886,2225181129,2211871542,2154269732,982,1,15,20236
1375050185,5807,59.9500007629394500,24.6581001281738280,35.3877983093261700,245.2541961669922000,17.5989208221435550,24.6283798217773440,27.6084194183349600,66,128,93,86,59,15142,2262226450,2271248941,2271386505,2158540608,2223212699,2234531090,2218670244,2155161947,365,1,16,64983
1375050240,5804,57.7200012207031250,24.7766990661621100,35.3918991088867200,245.1092071533203000,13.3136196136474610,24.7617702484130860,27.5622501373291000,64,130,95,85,55,15144,2276210761,2286122505,2286838555,2161131245,2233104996,2244766454,2226189750,2156330249,311,1,15,45360
1375050297,5808,56.0999984741210940,24.8066005706787100,35.3936996459960940,245.4140014648437500,11.8285703659057620,24.8080196380615230,27.5307197570800780,62,130,92,86,54,15148,2283977810,2293170569,2293277056,2162410477,2239363876,2250912731,2230370422,2156837714,55,1,15,60295
1375050385,5809,54.5099983215332000,24.9904994964599600,35.3916015625000000,245.8970947265625000,6.2140970230102540,24.9829807281494140,27.4411602020263670,62,128,95,86,56,15145,2299164589,2308101476,2307739346,2164812004,2252541010,2264700288,2240545554,2158192932,3138,1,16,65141
1375050645,5810,51.7400016784668000,25.2241992950439450,35.3987007141113300,246.8946990966797000,-1.5805449485778809,25.2261791229248050,27.3030796051025400,60,133,93,85,51,15132,2305456027,2312273554,2311174619,2167753097,2262102537,2272459968,2244938560,2159189869,2818,1,16,23645
1375050700,5807,49.0099983215332000,25.3817005157470700,35.3988990783691400,246.5126953125000000,-6.1867570877075195,25.3700695037841800,27.2632904052734380,59,132,93,86,55,15134,2316065910,2322126016,2320509403,2170819913,2274492233,2284196909,2252990189,2160523830,2303,2,16,11070
1375050755,5806,46.1899986267089840,25.4883995056152340,35.4020004272460940,246.5236053466797000,-9.4824848175048830,25.4731101989746100,27.2227306365966800,58,131,90,86,54,15134,2328109156,2333172251,2331230756,2175487506,2286129600,2294739821,2260126610,2161971776,2113,1,16,38913
1375050810,5809,43.7900009155273440,25.5816993713378900,35.4002990722656250,245.9954986572265600,-13.6860599517822270,25.6046199798584000,27.1942195892334000,58,133,93,84,57,15122,2344501942,2350211026,2348563565,2180721261,2301619465,2309735469,2271153088,2164121600,1248,0,17,28899
1375050865,5810,41.8899993896484400,25.7854003906250000,35.3848991394043000,245.9716033935547000,-19.0799407958984380,25.7735290527343750,27.1297092437744140,58,136,95,87,55,15130,2355952758,2361216932,2359631597,2185610349,2311318518,2318777170,2277573330,2165812571,1266,1,16,37804
1375050949,5808,39.8400001525878900,25.8565998077392580,35.3843002319335940,245.8773040771484400,-21.9139308929443360,25.8623504638671880,27.0993099212646500,58,131,95,86,60,15133,2377403017,2383803648,2384076672,2194266843,2330611684,2337563693,2291241984,2168354450,838,1,16,11264
1375051004,5813,38.2700004577636700,26.0158996582031250,35.3805999755859400,245.3009948730468800,-26.8656291961669920,26.0176696777343750,27.0640602111816400,57,134,92,86,55,15125,2332592429,2332965156,2329271835,2184388013,2301523008,2303609024,2263052544,2164958491,3522,0,17,18154
1375051114,5811,36.8800010681152340,26.1660995483398440,35.3764991760253900,244.2382049560547000,-32.2032508850097660,26.1852703094482420,27.0450992584228500,58,131,95,85,57,15124,2386210761,2388424329,2385452132,2198765174,2352131145,2355731638,2302247030,2171053083,3222,1,16,23991
1375051276,5808,35.2700004577636700,26.2810001373291000,35.3728981018066400,243.1159973144531200,-35.9051589965820300,26.3016300201416000,27.0487403869628900,56,136,95,87,54,15126,2407265636,2408531282,2405654180,2207228854,2377342957,2376733376,2315529755,2173632722,2124,1,17,40703
1375051353,5806,33.0499992370605500,26.4953994750976560,35.3639984130859400,241.2677001953125000,-42.5690002441406250,26.5113105773925780,27.0481605529785160,55,129,94,86,56,15131,2425878902,2427679149,2425781632,2218683273,2408456128,2404577654,2333253577,2177529782,1059,1,15,7676
1375051441,5809,31.4400005340576170,26.9423007965087900,35.3459014892578100,238.2935028076172000,-55.3866500854492200,26.9155197143554700,27.0231208801269530,55,128,94,86,57,15132,2441519506,2441910912,2438502034,2224349284,2428720210,2421694317,2344172955,2180211163,898,0,16,51942
1375051612,5809,29.2900009155273440,27.0790996551513670,35.3443984985351560,234.3338928222656200,-61.1867980957031250,27.0988197326660160,27.1289005279541000,54,126,92,85,57,15143,2392757869,2389431734,2384317714,2213559222,2386177819,2374287652,2306017115,2174006784,2729,1,16,61003
1375051700,5810,27.3400001525878900,27.2679996490478500,35.3302001953125000,231.9584960937500000,-66.6739120483398400,27.2724609375000000,27.1694908142089840,53,123,89,84,58,15156,2351158848,2344114377,2336438528,2203058880,2369454592,2353868105,2288536649,2170567844,2385,1,16,42261